Location: Buckland
(65.9785°N, 161.1281°W)
Time: 21:16:21
(UTC+00:00)

PRISM - Pass Details

Date: 18 January 2021
Orbit: 565 x 584 km, 98.2° (Epoch: 06 March)

Event Time Altitude Azimuth Distance (km) Brightness Sun altitude
Rises 16:07:57 0° 24° (NNE) 2,784 ? -23.3°
Reaches altitude 10° 16:10:24 10° 10° (N) 1,885 ? -23.1°
Enters shadow 16:11:42 17° 355° (N) 1,499 ? -23.0°
